Orbital Elements at Epoch 2459000.5 (2020-May-31.0) TDB
Reference: JPL 13 (heliocentric ecliptic J2000)
Element | Value | Uncertainty (1-sigma) | Units |
e | .1951039465737435 | 4.0154e-08 | |
a | 2.364852038659205 | 1.2807e-08 | au |
q | 1.903460072853831 | 9.3644e-08 | au |
i | 2.821121903474499 | 5.0519e-06 | deg |
node | 38.35650756397349 | 0.00010921 | deg |
peri | 225.9476890726172 | 0.00011019 | deg |
M | 237.814308401006 | 1.766e-05 | deg |
tp | 2459451.339788849971 (2021-Aug-24.83978885) | 6.6974e-05 | TDB |
period | 1328.325124341529 3.64 | 1.0791e-05 2.954e-08 | d yr |
n | .2710179860359544 | 2.2016e-09 | deg/d |
Q | 2.826244004464578 | 1.5306e-08 | au |
|
| | Orbit Determination Parameters
Additional Information
|